User: anonymous   Login
Location: Carri�res
(48.9069°N, 2.1792°E)
Time: 11:21:54
(UTC+00:00)
Language:

Cosmos 1606 Rocket - Orbit

View from above orbital plane
View from above orbital plane
View from above satellite
View from above satellite

Ground track
Ground track

The orbit data is extracted from the following two-line orbital elements,

1 15370U 84111B   21100.66361559  .00000095  00000-0  85377-5 0  9995
2 15370  82.5150 141.0663 0021984 135.7063 224.5916 14.83752344949696
Epoch (UTC): 10 April 2021 15:55:36
Eccentricity: 0.0021984
inclination: 82.5150°
perigee height: 602 km
apogee height: 633 km
right ascension of ascending node: 141.0663°
argument of perigee: 135.7063°
revolutions per day: 14.83752344
mean anomaly at epoch: 224.5916°
orbit number at epoch: 94969

The dashed part of the orbit path shows where the satellite is in the earth's shadow,  

DLR